QZS-2 (QZSS/PRN 184)

Last updated on Oct. 27, 2021, 12:03 a.m. UTC

1 42738U 17028A   21299.23799584 -.00000194  00000-0  00000-0 0  9997
2 42738  42.1682 267.4767 0745824 270.7231  80.1802  1.00252035 16149
UTC
Height (km)
Latitude
Longitude
Inclination
Orbital Period
UTC large
Height (km)
Speed (km/s)
/
Latitude / Longitude
Inclination (degrees)
Orbital Period (minutes)
Azimuth
Elevation
Range (km)
Doppler Factor
iOS Compass Heading
iOS Angle